Location: Quaker Farms
(41.4276°N, 73.1557°W)
Time: 00:44:26
(UTC+00:00)

Altair - Pass Details

Date: 21 June 2021
Orbit: 1501 x 1682 km, 47.2° (Epoch: 23 July)

Event Time Altitude Azimuth Distance (km) Brightness Sun altitude
Rises 14:43:22 0° 175° (S) 4,628 10.2 57.3°
Reaches altitude 10° 14:48:09 10° 154° (SSE) 3,670 10.0 58.1°
Maximum altitude 14:52:47 15° 123° (ESE) 3,315 10.1 58.9°
Drops below altitude 10° 14:57:30 10° 92° (E) 3,735 10.1 59.7°
Sets 15:02:22 0° 71° (ENE) 4,761 10.4 60.5°
